星链-1835 (STARLINK-1835 )

导读 | 星芒AI

STARLINK-1835 是 SpaceX Starlink 项目中的第 1835 颗卫星,属于其低轨卫星互联网星座的一部分。该卫星于 2023 年发射,运行在约 550 公里的轨道高度,旨在为全球用户提供高速、低延迟的互联网服务。Starlink 项目致力于通过大规模卫星部署,改善偏远地区网络接入,推动全球数字连接。STARLINK-1835 采用先进推进和通信技术,支持星间链路,提升系统整体性能与可靠性。

基本信息
目录编号:
46782
目录名称:
STARLINK-1835
国际标识:
2020-074AV
轨道中心:
EARTH
卫星名称:
星链-1835
卫星全名:
星链-1835 (STARLINK-1835 )
卫星状态:
在轨 (已飞行1831 天)
发射日期:
2020-10-24 UTC
国别 :
美国 (US)
星等 :
--
轨道信息
数据来源 国际轨道数据
星历时间: 2025-10-29T20:00:03+0800
4小时前
查看轨道信息
半长轴: 6873.687km
偏心率: 0.0001621
轨道倾角: 53.055°
近地点辐角 107.926°
升交点赤经 179.997°
平近点角 68.261°
近地点: 494.437km
远地点: 496.667km
周期: 94.524分钟
每日圈数: 15.23415
详细信息
固有亮度:
5
最大亮度:
2.5
卫星平台:
Starlink V1.0
覆盖范围:
全球
运营商:
太空探索技术公司
运营商所在国:
美国
制造商(研发单位):
太空探索技术公司
制造商所在国:
美国
使用方式:
暂无
卫星简介
星链(Starlink)计划是由太空探索技术公司(SpaceX)提出的一个巨型低轨卫星互联网星座项目,计划在2019年至2024年间在太空搭建由约1.2万颗卫星组成的“星链”网络,其中1584颗将部署在地球上空550千米处的近地轨道,并从2020年开始工作。该卫星仍在工作。
2D轨道图
3D轨道图
轨道高度分析图
轨道倾角分析图
轨道综合分析图
查看轨道综合分析图